User: anonymous   Login
Location: Unspecified
(0.0000°N, 0.0000°E)
Time: 06:23:40
(UTC+00:00)
Language:

APRIZESAT 5 - Orbit

View from above orbital plane
View from above orbital plane
View from above satellite
View from above satellite

Ground track
Ground track

The orbit data is extracted from the following two-line orbital elements,

1 37792U 11044E   17234.85153215  .00000099  00000-0  22661-4 0  9994
2 37792  98.3469  19.9584 0058078 197.7495 162.1685 14.75148554323691
Epoch (UTC): 22 August 2017 20:26:12
Eccentricity: 0.0058078
inclination: 98.3469°
perigee height: 604 km
apogee height: 685 km
right ascension of ascending node: 19.9584°
argument of perigee: 197.7495°
revolutions per day: 14.75148554
mean anomaly at epoch: 162.1685°
orbit number at epoch: 32369

The dashed part of the orbit path shows where the satellite is in the earth's shadow,  

DLR